RH
100 100 100 100 100 100 100 100 91 80 68 69 60 52 63 65 48 50 53 74 81 89 71 65 32 37 59 47 61 95 79 62 96 68 100 100 86 94 76 40 36 45 28 24 25 30 36
97 100 100 100 100 97 100 100 81 78 59 54 77 51 58 54 49 52 55 82 70 61 56 52 36 52 53 42 45 52 35 44 100 100 100 90 96 100 76 33 32 32 28 24 27 32 38
99 100 97 100 88 100 99 100 82 76 58 50 69 57 52 53 48 43 56 57 49 42 40 50 43 35 44 52 34 36 44 32 55 88 76 83 100 88 38 36 26 19 23 30 33 33 41
100 100 98 99 99 98 98 98 84 71 61 48 62 70 61 48 51 38 54 44 36 33 30 32 39 54 32 40 42 44 51 38 31 62 53 44 37 31 46 56 46 27 26 27 33 41 44
93 95 91 91 91 100 100 98 88 88 63 60 54 74 56 44 44 39 45 71 44 33 31 28 48 36 27 38 40 36 43 42 33 50 64 52 53 56 43 27 24 28 30 32 37 44 50
80 84 96 91 97 98 100 94 98 94 68 74 70 61 57 41 30 42 43 44 68 45 36 32 47 50 39 26 32 38 34 32 35 36 47 57 57 50 32 30 30 32 34 42 48 63 65
68 81 100 88 78 97 100 90 95 83 79 69 70 60 49 42 25 33 35 35 49 52 34 40 42 32 28 27 26 31 26 35 36 30 31 28 27 29 29 31 32 33 39 47 62 68 80
70 88 94 76 85 100 100 92 90 79 62 62 54 59 45 39 24 22 26 23 34 39 63 41 66 67 26 25 23 24 24 22 22 24 23 33 32 35 32 35 41 47 57 73 81 89 89
72 92 88 82 96 100 98 97 76 72 57 49 43 49 45 42 40 27 22 20 22 35 55 83 79 55 23 17 19 26 27 27 32 31 38 39 36 40 43 45 49 59 72 70 77 92 80
70 98 94 62 76 99 100 85 65 55 48 38 36 47 47 42 44 47 28 17 32 34 52 84 82 56 40 41 41 26 65 68 47 57 34 35 55 54 52 57 54 71 76 78 100 90 76
87 84 72 83 76 78 85 63 49 48 38 34 34 39 41 63 31 35 28 29 59 66 34 99 100 98 59 51 69 49 86 63 70 48 50 56 42 42 56 60 65 70 95 100 100 99 92
69 70 64 72 84 76 55 48 55 46 36 31 32 38 42 65 38 48 33 46 59 65 58 90 93 72 80 43 61 37 33 68 51 56 100 65 46 60 65 74 84 94 100 100 100 96 97
82 67 63 83 76 55 42 44 48 43 43 34 44 60 67 57 38 32 41 47 42 44 100 40 28 32 30 40 42 58 54 39 51 76 68 59 63 92 86 100 100 100 100 100 100 100 100
89 80 84 88 62 49 41 46 56 70 42 56 65 97 98 64 46 60 69 63 31 62 43 45 49 39 36 49 60 62 79 57 56 74 78 66 89 100 100 96 100 100 100 100 99 100 99
95 100 92 72 69 60 56 84 84 75 82 56 67 76 80 86 61 66 77 68 78 59 34 46 75 76 60 41 78 84 83 81 85 82 76 78 100 100 100 100 100 100 100 100 100 100 99
100 89 81 86 86 72 68 95 73 70 84 84 94 86 80 33 70 78 91 70 57 56 61 78 88 84 64 74 84 70 84 76 95 100 87 100 100 100 100 100 100 100 100 100 100 100 91
100 100 100 100 98 87 83 87 73 80 98 73 49 82 53 75 80 91 89 82 60 55 69 82 100 98 99 90 91 91 81 89 100 100 100 100 100 100 100 100 100 100 100 100 100 100 100
100 100 100 100 100 97 69 77 94 100 100 100 74 64 69 59 96 86 100 100 100 100 100 100 100 100 100 100 100 100 100 100 100 100 100 96 100 93 92 100 94 90 98 100 100 100 100
100 100 98 100 88 94 96 81 98 100 100 100 100 74 79 88 93 100 99 100 86 74 100 100 100 100 100 100 100 100 100 100 92 81 94 100 97 100 100 100 98 92 99 100 100 100 100
93 100 100 95 100 100 98 100 100 100 100 100 100 100 98 100 100 100 100 100 100 100 100 100 100 96 97 100 100 95 95 97 100 100 100 99 78 95 97 100 93 94 100 100 100 100 100
100 100 100 98 100 100 100 100 100 100 100 100 100 100 92 100 100 100 100 100 100 100 100 100 100 100 100 100 100 100 100 100 100 100 86 67 70 82 90 82 100 100 100 100 100 100 98
97 100 100 100 100 94 95 96 100 100 100 100 100 100 100 100 100 100 100 100 100 100 100 100 100 100 100 89 100 100 100 87 68 63 76 95 100 97 82 100 100 100 100 100 100 93 60
100 100 91 100 100 100 100 95 100 100 100 100 100 100 100 100 100 93 74 85 81 63 65 85 90 74 52 87 84 70 76 73 75 100 98 79 90 98 90 100 100 81 90 56 58 49 42
100 100 92 100 100 100 97 100 97 97 100 100 100 100 79 100 83 88 100 100 80 76 95 93 95 97 83 88 88 84 91 100 91 89 99 100 100 96 100 95 65 52 39 30 19 18 8
100 80 69 93 100 100 100 100 100 100 100 100 100 100 100 100 100 100 100 100 100 100 100 100 100 100 91 88 100 96 100 100 100 100 100 97 97 92 72 53 32 25 23 10 9 8 8
100 100 100 100 100 100 100 85 100 100 100 100 100 100 100 100 100 100 100 100 100 100 100 100 100 100 99 96 100 99 94 98 79 67 66 76 69 59 42 26 18 13 8 9 7 8 7
100 100 100 100 100 72 100 100 100 100 98 100 100 100 100 100 100 100 100 100 100 100 100 100 92 98 100 100 94 80 72 62 61 47 58 32 21 17 12 7 6 6 7 6 6 7 7
91 100 100 100 100 100 100 100 100 100 100 100 100 100 100 100 100 100 100 100 100 99 100 98 99 95 95 88 58 47 48 51 29 19 18 12 9 7 6 7 8 7 6 6 6 6 7
93 97 100 96 100 100 100 100 100 99 100 100 100 100 100 100 100 100 100 100 100 100 100 100 100 94 92 51 46 41 34 18 12 9 8 6 6 6 6 6 6 5 5 6 6 7 7
Wind_Speed
83 83 84 80 80 79 80 79 74 64 56 46 42 40 37 37 43 41 39 34 31 34 36 33 35 38 36 35 33 29 32 29 31 28 34 34 36 36 29 27 22 21 20 27 31 35 38
80 59 71 80 79 71 65 70 65 58 52 46 39 38 38 39 43 42 37 34 33 31 33 30 32 35 31 30 31 29 27 24 31 36 33 34 37 27 25 21 22 28 29 38 39 43 42
68 64 68 72 72 68 67 62 61 49 48 43 37 38 41 43 43 43 34 28 30 32 32 28 31 33 31 33 28 28 31 28 30 34 35 34 36 37 33 26 22 27 32 42 46 48 50
68 67 69 67 67 64 64 60 54 50 48 42 38 40 42 41 42 39 31 28 29 32 28 27 33 43 34 31 32 32 34 31 31 33 33 31 31 30 33 37 37 42 41 43 51 54 53
70 67 67 65 63 62 56 60 48 48 44 41 45 41 42 39 38 37 30 33 30 33 34 23 28 34 33 31 30 27 27 30 30 28 30 30 29 34 38 36 35 45 48 52 53 59 58
73 68 68 67 60 61 59 57 50 53 50 45 46 42 43 38 37 32 31 34 37 36 35 33 37 37 37 35 31 29 27 28 31 30 27 32 37 39 43 46 49 55 58 59 58 63 64
74 70 69 68 61 58 62 59 57 53 50 47 46 46 44 39 35 33 34 35 36 37 34 31 34 38 38 35 33 29 29 36 35 30 32 33 37 39 39 48 53 53 56 56 62 69 72
76 75 70 67 60 58 59 62 62 58 56 49 46 45 45 43 36 32 32 34 34 39 47 39 43 46 38 29 31 32 34 35 41 40 36 45 42 47 53 58 55 60 64 66 68 73 79
81 74 71 68 62 63 67 67 60 55 52 50 45 46 49 44 46 35 35 28 30 35 39 48 47 44 45 41 42 42 38 40 44 46 52 53 48 52 55 57 62 66 69 72 77 81 78
79 71 69 68 69 68 68 63 55 50 51 49 48 49 49 43 42 40 39 34 36 35 39 49 52 52 52 60 54 55 59 59 52 52 55 55 61 69 69 66 73 71 78 82 87 89 82
70 67 69 74 72 68 67 66 59 52 55 55 49 49 50 49 45 42 39 36 43 44 43 53 56 57 61 58 59 58 61 58 63 65 61 64 60 63 67 73 80 82 90 91 94 96 94
75 73 74 69 65 62 66 65 61 61 56 50 50 48 51 50 50 48 46 44 47 47 49 55 62 67 61 63 61 64 64 64 66 63 65 74 72 66 71 74 82 83 94 96 97 103 100
76 79 71 67 65 64 62 60 59 55 57 51 50 50 52 49 51 51 53 49 48 50 59 57 58 59 62 66 65 74 69 67 68 67 72 81 73 78 76 77 85 89 97 102 105 104 110
75 69 67 63 66 69 63 56 56 55 54 50 53 56 58 55 52 55 54 58 57 59 60 65 66 64 65 63 66 71 76 72 66 72 83 83 77 80 88 92 97 102 106 107 113 109 113
64 60 61 63 59 57 56 53 57 57 51 55 54 55 59 60 63 60 59 60 62 64 66 69 74 76 73 75 76 80 77 80 77 81 89 87 88 92 93 99 103 112 110 116 116 118 122
65 68 62 59 56 60 60 56 59 56 55 61 61 60 56 63 66 67 66 63 66 71 74 75 78 78 82 85 80 83 87 83 86 91 94 93 95 99 107 109 117 117 122 118 120 126 128
60 53 53 55 58 63 60 60 60 59 60 61 65 59 60 65 70 70 72 74 71 72 72 77 82 87 86 86 89 94 94 92 95 99 103 103 107 110 113 117 120 126 124 124 128 129 129
60 57 59 58 57 62 64 60 58 61 62 62 62 69 66 68 72 72 74 77 76 79 82 84 85 88 91 95 94 97 101 104 105 103 106 109 119 118 118 124 130 127 133 135 131 128 123
71 70 69 66 68 62 60 63 59 64 66 70 70 69 72 70 72 75 76 80 84 82 86 87 88 86 90 96 102 109 111 114 115 116 109 124 127 126 123 137 136 137 134 126 128 125 115
71 69 71 69 65 61 63 66 67 69 70 71 74 76 74 75 75 76 76 83 84 79 84 93 96 100 101 104 112 119 124 124 118 113 129 133 136 133 137 135 140 136 136 128 123 125 125
67 68 75 69 68 67 67 67 74 78 77 79 78 80 78 79 84 85 85 84 90 90 95 103 111 107 111 118 117 120 124 125 124 133 140 146 142 140 140 140 134 133 130 126 128 128 124
88 82 79 75 74 73 75 80 81 84 80 80 84 84 82 83 87 91 96 97 100 104 107 106 108 112 116 125 129 127 131 138 142 148 143 142 140 146 144 138 134 140 134 133 122 116 115
93 89 88 84 79 81 80 86 83 81 83 85 86 89 87 90 94 103 105 107 111 113 112 112 112 124 131 130 134 136 135 146 145 141 147 151 150 155 143 135 142 122 125 114 112 114 118
106 94 93 93 95 90 91 95 97 102 91 87 92 96 103 104 106 106 112 117 116 121 123 125 124 126 127 132 139 145 142 143 152 150 151 150 155 150 143 140 127 117 117 117 109 105 95
99 97 100 95 97 97 98 103 103 96 92 91 95 100 103 106 109 108 111 116 119 120 123 131 136 139 145 147 146 150 151 152 151 153 156 156 149 148 142 130 122 117 118 101 95 89 81
106 97 97 102 101 105 102 106 101 98 99 98 103 108 110 110 112 117 121 121 126 131 135 142 142 145 150 153 152 152 155 158 163 169 151 145 142 134 127 125 117 108 96 89 81 78 73
113 111 112 108 107 107 113 112 115 112 114 111 114 116 117 115 114 120 127 132 134 139 146 149 151 151 153 157 161 163 164 166 164 143 140 128 125 118 113 103 90 87 79 75 71 65 62
111 113 116 112 113 115 118 115 113 111 112 117 120 120 122 126 130 133 134 138 142 147 150 153 157 159 162 164 169 171 170 154 133 124 122 115 109 98 88 83 81 77 72 64 58 54 50
108 109 113 114 117 117 118 118 117 120 119 118 122 125 128 132 135 139 141 143 148 152 157 156 162 167 169 171 165 143 135 126 118 111 106 96 86 79 76 74 69 66 60 54 48 46 43
Wind_Direction
270 276 276 280 284 286 289 291 294 299 297 298 302 297 295 296 304 308 304 289 288 292 292 290 302 302 301 298 296 287 288 289 279 275 275 275 284 267 268 280 279 270 270 295 300 301 294
272 272 276 278 280 287 290 290 294 298 297 297 298 295 298 297 301 304 300 288 286 287 287 290 312 303 301 301 293 289 293 293 276 272 271 274 277 263 278 286 284 287 281 290 295 297 298
272 276 280 277 282 284 287 291 294 297 297 296 292 294 299 300 303 302 292 278 282 283 287 293 305 313 297 290 288 283 298 300 293 283 277 272 271 276 275 263 290 302 301 292 290 295 296
273 278 281 284 283 286 289 292 295 297 294 294 293 290 297 299 299 295 284 273 282 281 289 299 301 305 304 296 294 288 291 299 288 283 274 265 266 272 281 279 284 306 307 302 294 289 292
272 276 278 281 287 282 288 292 292 296 293 295 295 291 297 298 294 290 283 272 280 283 287 308 299 313 312 310 303 303 302 302 306 288 282 283 288 282 287 294 298 290 295 298 296 294 300
271 273 279 281 284 282 286 287 291 291 293 295 293 293 295 293 291 285 281 278 270 286 285 292 299 304 315 313 304 299 308 306 300 302 286 283 282 280 283 295 295 293 298 294 298 296 305
268 272 277 276 280 283 283 283 291 288 289 292 294 295 293 289 287 286 284 279 272 277 283 293 299 308 310 308 309 306 309 303 305 305 295 291 289 284 297 289 290 295 300 299 296 299 298
269 270 270 272 277 279 282 286 290 288 289 289 292 290 288 287 281 285 281 287 276 272 287 285 291 300 303 299 309 298 293 309 318 305 306 290 276 290 287 291 288 290 293 291 293 297 303
271 268 269 271 274 277 281 286 287 289 286 288 288 288 287 284 279 282 282 278 279 280 288 288 284 296 296 294 291 285 297 296 295 310 303 293 289 281 286 290 298 298 296 300 304 300 308
265 264 268 273 275 276 279 282 284 286 287 288 288 289 285 281 275 279 279 282 272 283 280 285 291 296 289 291 300 296 293 293 297 286 306 299 288 288 289 286 296 301 303 305 303 306 308
260 264 272 272 274 272 275 278 283 289 289 289 288 285 281 277 275 279 279 283 276 275 292 287 287 294 296 294 292 294 291 290 290 294 296 301 298 292 286 294 295 296 300 300 302 308 306
261 268 270 270 269 271 275 279 281 287 291 289 290 280 281 276 277 275 280 279 281 282 286 286 285 290 288 289 288 293 287 282 285 290 288 300 294 295 295 295 293 294 299 299 304 309 309
266 270 269 264 266 280 283 279 282 289 291 289 286 278 279 278 277 277 276 278 278 283 279 288 287 287 292 286 285 286 290 288 284 292 293 299 293 294 305 301 299 301 304 299 307 309 309
268 266 261 265 276 281 282 283 287 283 288 283 281 279 275 274 277 277 278 278 287 282 280 287 287 286 292 289 289 291 290 292 288 289 294 302 300 302 307 309 302 305 307 307 308 309 309
261 258 262 273 275 279 281 280 281 284 280 281 277 281 276 275 275 277 277 281 280 282 287 289 288 289 295 298 291 294 293 292 291 296 300 305 302 305 305 307 305 308 307 308 306 307 309
256 260 265 268 268 275 277 274 282 283 279 279 278 274 275 282 277 278 278 281 286 285 289 291 289 293 295 296 291 294 297 294 295 300 305 303 305 305 307 307 307 306 308 307 306 308 309
254 253 255 259 261 270 273 276 280 282 275 275 279 273 277 279 278 280 281 285 288 292 289 290 293 296 291 294 292 295 301 300 300 301 303 302 304 306 305 306 305 307 307 307 307 308 308
248 248 253 261 259 266 274 277 276 277 275 274 276 278 276 283 281 287 286 290 293 294 292 292 293 292 293 294 294 296 301 301 303 301 302 301 303 307 306 305 308 309 310 309 308 307 305
248 250 254 260 264 267 270 277 273 271 273 279 273 271 281 281 282 284 284 284 289 293 288 287 291 292 294 294 295 299 300 301 304 303 300 303 306 308 308 307 308 309 308 305 304 302 305
250 251 250 256 255 263 268 270 271 269 272 274 272 276 284 280 287 283 284 285 287 287 284 289 288 289 288 291 293 294 299 301 302 299 300 304 305 306 306 306 306 307 305 306 304 304 302
241 248 250 252 254 261 263 265 271 276 275 270 272 273 277 276 279 277 278 278 281 279 281 286 289 290 292 297 298 299 301 302 301 300 302 302 301 300 304 306 303 305 306 304 302 302 301
245 247 253 247 255 263 265 271 267 270 272 270 272 276 275 274 274 278 278 281 282 282 283 286 288 290 292 293 293 294 294 294 296 299 301 300 299 301 305 305 304 305 305 303 303 300 297
245 247 250 248 254 260 265 269 265 268 271 272 274 269 274 272 272 279 284 283 286 286 286 285 284 287 291 288 288 290 293 296 298 300 302 304 305 306 307 301 303 307 302 300 299 297 296
248 249 251 253 255 262 263 265 271 274 275 273 277 274 278 274 279 282 285 287 284 286 285 286 287 287 289 288 292 296 299 299 301 303 304 304 305 304 303 304 304 302 300 299 298 296 294
248 250 253 255 258 259 263 266 270 271 271 270 269 273 275 278 281 281 281 282 282 284 285 288 290 292 294 296 297 299 300 301 302 304 303 303 304 303 304 302 302 303 300 298 296 295 295
246 250 252 256 259 258 261 264 268 270 271 271 272 275 279 278 278 279 281 282 283 285 287 291 294 294 295 296 297 299 300 301 301 303 304 301 301 300 300 300 301 299 295 295 294 294 295
246 248 250 256 258 261 263 266 268 271 273 273 274 275 276 276 274 277 281 283 285 288 289 289 291 293 296 297 297 298 299 299 302 303 301 300 300 302 301 299 299 295 294 294 295 295 293
246 248 250 256 257 260 264 267 269 271 273 273 274 277 276 277 278 279 279 281 284 286 287 289 291 292 294 295 297 298 299 301 299 299 299 299 299 298 297 295 293 292 293 295 293 289 288
245 248 253 255 260 262 264 268 269 271 271 271 273 275 277 278 279 280 281 282 284 286 288 289 290 291 292 295 299 299 297 297 297 299 298 298 297 296 295 293 291 292 294 290 288 284 282